CZ-6A DEB, 56270

Orbit data source: Space-Track

CZ-6A DEB, 56270 is space debris in SSO originally from a launch on Fri, 11 Nov 2022 UTC launched from the Taiyaun Space Center, China (TSC). Debris objects in space refer to the collection of defunct objects orbiting the Earth. Examples of debris include non-operational satellites, rocket bodies, and fragments generated from explosions, collisions, or faulty payload assembly.

Loading next visibility...
Identifier
56270, 2022-151ACN
Orbit
SSO
Country
Flag of CNCN / PRC
Related business
Manufacturer
SAST
Mission
Spacecraft
Bus & Motor
Unknown
Mass
Unknown
Launch date (UTC)
2022-11-11 (4 years ago)
Launch vehicle
Unknown
Launch site
Taiyaun Space Center, China (TSC)
Object type
Payload
Rocket body
Debris
Shape & HBR
Unknown shape, 0.1 m
Radar Cross Section
Medium (>0.1 m² and <1 m²)

Expand to show TLE details & history
Last TLE update: 14 hours ago

TLE from 14 hours ago
0 CZ-6A DEB
1 56270U 22151ACN 26238.16778130  .00010304  00000-0  14191-2 0  9991
2 56270  98.6211 312.0152 0064379  49.9595 310.7236 14.77012161186235
Epoch: 2026-08-26T04:01Z
TLE epoch observation values (Epoch: 2026-08-26T04:01:36.304Z)
Latitude
-0.00007°
Longitude
-82.81072°
Altitude
612.456 km
Speed
7.569 km/s
True Right ascension
20h 48m 03s
True Declination
0° 00' 00"
Sunlit
Object was in full shadow at epoch
Visualization orbit readout
Latitude
Unknown
Longitude
Unknown
Altitude
Unknown
Speed
Unknown
Apparent Right ascension
Unknown
Apparent Declination
Unknown
Sunlit
N/A
Visualization observer readout
Local Sidereal Time
09:19:30
Azimuth
Unknown
Elevation
Unknown
Doppler factor
Unknown
Orbital elements
Apogee altitude
681.005 km
Perigee altitude
590.694 km
Semi-major axis
7,013.987 km
Eccentricity
0.00644
Inclination
98.6211°
RAAN
312.0152°
Arg. of periapsis
49.9595°
True anomaly
310.16156°
Mean anomaly
310.7236°
Eccentric anomaly
310.44287°
Mean motion
3.69484 °/min
Orbital period
97.43 mins
BSTAR
0.0014191
Loading maneuver chart data...
Computing Atmospheric mass density...
Loading historical data...
Loading historical data...
Loading historical data...
Loading historical data...
Loading historical data...
Loading historical data...
Loading historical data...

Documentation

Showing up to 5 results
|